Tacoma, WA

11:42 AM PDT on October 20, 2017 (GMT -0700)
McChord Air Force Base

Weather History for KTCM - October, 2012

Change the Weather History Date:

Sunday, October 14, 2012

  Actual Average Record
Temperature  
Mean Temperature 61 °F -  
Max Temperature 65 °F 59 °F 79 °F (1961)
Min Temperature 57 °F 40 °F 21 °F (1969)
Degree Days  
Heating Degree Days 4    
Growing Degree Days 11 (Base 50)    
Moisture  
Dew Point 56 °F    
Average Humidity 87    
Maximum Humidity 100    
Minimum Humidity 69    
Precipitation  
Precipitation 0.29 in - - ()
Sea Level Pressure  
Sea Level Pressure 29.95 in    
Wind  
Wind Speed 9 mph (SSW)    
Max Wind Speed 22 mph    
Max Gust Speed 32 mph    
Visibility 9 miles    
Events Rain    
Averages and records for this station are not official NWS values.
T = Trace of Precipitation, MM = Missing Value Source: NWS Daily Summary

Daily Weather History Graph

Daily Weather History Graph

Search for Another Location

Airport or City:

Trip Planner

Search our weather history database for the weather conditions in past years. The results will help you decide how hot, cold, wet, or windy it might be!

Date:

Astronomy

Oct. 14, 2012 Rise Set
Actual Time 7:27 AM PDT 6:23 PM PDT
Civil Twilight 6:56 AM PDT 6:53 PM PDT
Nautical Twilight 6:21 AM PDT 7:29 PM PDT
Astronomical Twilight 5:46 AM PDT 8:04 PM PDT
Moon 6:32 AM PDT (10/14) 5:45 PM PDT (10/14)
Length of Visible Light 11h 57m
Length of Day
10h 55m
Waning Crescent, 1% of the Moon is Illuminated
Oct 14
Waning Crescent
Oct 15
New
Oct 21
First Quarter
Oct 29
Full
Nov 6
Last Quarter

Hourly Weather History & Observations

Time (PDT) Temp. Dew Point Humidity Pressure Visibility Wind Dir Wind Speed Gust Speed Precip Events Conditions
12:58 AM 61.0 °F 54.7 °F 80% 30.13 in 10.0 mi SW 9.2 mph - N/A   Overcast
1:58 AM 61.0 °F 55.0 °F 81% 30.10 in 10.0 mi South 5.8 mph - N/A   Overcast
2:58 AM 59.5 °F 55.8 °F 87% 30.09 in 10.0 mi South 5.8 mph - N/A   Overcast
3:58 AM 60.6 °F 54.9 °F 81% 30.07 in 10.0 mi SSW 6.9 mph - N/A   Overcast
4:58 AM 61.5 °F 54.7 °F 78% 30.04 in 10.0 mi SSW 3.5 mph - N/A   Overcast
5:58 AM 57.4 °F 55.4 °F 93% 30.04 in 10.0 mi SSW 4.6 mph - N/A   Overcast
6:58 AM 60.8 °F 54.1 °F 79% 30.02 in 10.0 mi SSW 6.9 mph - N/A   Mostly Cloudy
7:58 AM 59.4 °F 54.1 °F 83% 30.00 in 10.0 mi SSE 5.8 mph - N/A   Overcast
8:58 AM 64.0 °F 55.2 °F 73% 29.98 in 10.0 mi South 12.7 mph - N/A   Mostly Cloudy
9:58 AM 65.1 °F 55.4 °F 71% 29.99 in 10.0 mi SSW 11.5 mph - N/A   Overcast
10:58 AM 65.5 °F 55.6 °F 70% 29.98 in 10.0 mi SSW 15.0 mph 25.3 mph N/A   Scattered Clouds
11:58 AM 65.7 °F 55.0 °F 69% 29.99 in 10.0 mi South 21.9 mph 32.2 mph N/A   Mostly Cloudy
12:30 PM 64.4 °F 55.4 °F 73% 29.98 in 10.0 mi SSW 18.4 mph 26.5 mph N/A Rain Light Rain
12:45 PM 64.4 °F 55.4 °F 73% 29.98 in 10.0 mi South 16.1 mph 26.5 mph N/A   Overcast
12:58 PM 64.9 °F 54.9 °F 70% 29.98 in 10.0 mi South 18.4 mph - 0.00 in   Overcast
1:53 PM 64.4 °F 55.4 °F 73% 29.96 in 10.0 mi South 21.9 mph 31.1 mph N/A Rain Light Rain
1:58 PM 64.8 °F 55.0 °F 71% 29.97 in 10.0 mi South 15.0 mph 31.1 mph 0.00 in Rain Light Rain
2:58 PM 63.0 °F 55.8 °F 77% 29.95 in 10.0 mi South 17.3 mph - 0.01 in Rain Light Rain
3:58 PM 61.3 °F 56.7 °F 85% 29.94 in 7.0 mi SW 3.5 mph - 0.02 in Rain Rain
4:17 PM 60.8 °F 57.2 °F 88% 29.94 in 2.5 mi West 4.6 mph - N/A Rain Heavy Rain
4:22 PM 60.8 °F 57.2 °F 88% 29.94 in 2.0 mi West 3.5 mph - N/A Rain Rain
4:27 PM 60.8 °F 59.0 °F 94% 29.94 in 3.0 mi WNW 2.3 mph - N/A Rain Rain
4:58 PM 59.9 °F 59.0 °F 97% 29.94 in 5.0 mi Calm Calm - 0.11 in Rain Rain
5:58 PM 59.0 °F 58.8 °F 99% 29.92 in 9.0 mi SE 4.6 mph - 0.08 in Rain Light Rain
6:58 PM 58.6 °F 57.6 °F 96% 29.91 in 10.0 mi SSE 4.6 mph - 0.03 in Rain Light Rain
7:48 PM 59.0 °F 57.2 °F 94% 29.90 in 10.0 mi South 10.4 mph - N/A   Overcast
7:58 PM 59.0 °F 56.8 °F 93% 29.90 in 10.0 mi South 10.4 mph - 0.02 in   Overcast
8:06 PM 59.0 °F 57.2 °F 94% 29.89 in 10.0 mi South 9.2 mph - N/A Rain Light Rain
8:37 PM 59.0 °F 57.2 °F 94% 29.89 in 10.0 mi South 5.8 mph - N/A   Overcast
8:52 PM 59.0 °F 57.2 °F 94% 29.89 in 10.0 mi South 5.8 mph - N/A   Overcast
8:58 PM 58.8 °F 57.0 °F 94% 29.90 in 10.0 mi South 6.9 mph - 0.01 in   Overcast
9:40 PM 59.0 °F 57.2 °F 94% 29.90 in 10.0 mi SSW 9.2 mph - N/A Rain Light Rain
9:45 PM 59.0 °F 55.4 °F 88% 29.90 in 10.0 mi SSW 11.5 mph - N/A Rain Light Rain
9:50 PM 59.0 °F 55.4 °F 88% 29.90 in 10.0 mi SSW 9.2 mph - N/A Rain Light Rain
9:57 PM 59.0 °F 55.4 °F 88% 29.90 in 10.0 mi SSW 10.4 mph - N/A   Overcast
9:58 PM 59.7 °F 55.9 °F 87% 29.91 in 10.0 mi SSW 10.4 mph - 0.00 in   Overcast
10:28 PM 59.0 °F 57.2 °F 94% 29.91 in 10.0 mi SSW 8.1 mph - N/A   Overcast
10:58 PM 59.4 °F 56.8 °F 91% 29.91 in 10.0 mi South 8.1 mph - 0.00 in   Overcast
10:59 PM 59.0 °F 57.2 °F 94% 29.90 in 10.0 mi South 8.1 mph - N/A Rain Light Rain
11:09 PM 59.0 °F 57.2 °F 94% 29.90 in 10.0 mi South 6.9 mph - N/A Rain Light Rain
11:21 PM 59.0 °F 57.2 °F 94% 29.88 in 10.0 mi SSE 8.1 mph - N/A   Overcast
11:24 PM 59.0 °F 57.2 °F 94% 29.89 in 10.0 mi SSE 5.8 mph - N/A Rain Light Rain
11:39 PM 59.0 °F 57.2 °F 94% 29.89 in 10.0 mi SSE 4.6 mph - N/A   Overcast
11:42 PM 57.2 °F 57.2 °F 100% 29.88 in 10.0 mi SSE 4.6 mph - N/A Rain Light Rain
11:56 PM 57.2 °F 57.2 °F 100% 29.90 in 10.0 mi SW 5.8 mph - N/A   Overcast
11:58 PM 57.2 °F 57.2 °F 100% 29.91 in 10.0 mi SW 4.6 mph - 0.01 in   Overcast
11:59 PM 59.0 °F 57.2 °F 94% 29.90 in 10.0 mi SW 4.6 mph - N/A Rain Light Rain